Weather History for KNFL - January, 2013

Change the Weather History Date:

Wednesday, January 16, 2013

  Actual Average Record
Temperature  
Mean Temperature 18 °F -  
Max Temperature 36 °F 46 °F 69 °F (1974)
Min Temperature 1 °F 22 °F -10 °F (1949)
Degree Days  
Heating Degree Days 46    
Moisture  
Dew Point 8 °F    
Average Humidity 70    
Maximum Humidity 92    
Minimum Humidity 42    
Precipitation  
Precipitation 0.00 in - - ()
Sea Level Pressure  
Sea Level Pressure 30.48 in    
Wind  
Wind Speed 2 mph (ENE)    
Max Wind Speed 8 mph    
Max Gust Speed -    
Visibility 10 miles    
Events      
Averages and records for this station are not official NWS values.
T = Trace of Precipitation, MM = Missing Value Source: NWS Daily Summary

Daily Weather History Graph

Daily Weather History Graph

Search for Another Location

Airport or City:

Trip Planner

Search our weather history database for the weather conditions in past years. The results will help you decide how hot, cold, wet, or windy it might be!

Date:

Astronomy

Jan. 16, 2013 Rise Set
Actual Time 7:12 AM PST 4:57 PM PST
Civil Twilight 6:43 AM PST 5:26 PM PST
Nautical Twilight 6:10 AM PST 5:59 PM PST
Astronomical Twilight 5:38 AM PST 6:31 PM PST
Moon 9:53 AM PST (1/16) 10:51 PM PST (1/16)
Length of Visible Light 10h 43m
Length of Day
9h 44m
Waxing Crescent, 29% of the Moon is Illuminated
Jan 16
Waxing Crescent
Jan 18
First Quarter
Jan 26
Full
Feb 3
Last Quarter
Feb 9
New

Hourly Weather History & Observations

Time (PST) Temp. Windchill Dew Point Humidity Pressure Visibility Wind Dir Wind Speed Gust Speed Precip Events Conditions
12:56 AM 10.0 °F - 5.0 °F 80% 30.51 in 10.0 mi Calm Calm - N/A   Clear
1:56 AM 3.9 °F - -0.9 °F 80% 30.51 in 10.0 mi Calm Calm - N/A   Clear
2:56 AM 6.1 °F - 1.0 °F 80% 30.53 in 10.0 mi Calm Calm - N/A   Clear
4:56 AM 6.1 °F - 1.9 °F 83% 30.51 in 10.0 mi Calm Calm - N/A   Clear
5:56 AM 5.0 °F - 1.0 °F 84% 30.51 in 10.0 mi Calm Calm - N/A   Clear
6:24 AM 1.4 °F - -0.4 °F 92% 30.67 in 10.0 mi Calm Calm - N/A   Clear
6:56 AM 1.0 °F - -0.9 °F 91% 30.51 in 10.0 mi Calm Calm - N/A   Clear
7:56 AM 6.1 °F - 1.9 °F 83% 30.52 in 10.0 mi Calm Calm - N/A   Clear
8:56 AM 15.1 °F 7.7 °F 8.1 °F 74% 30.53 in 10.0 mi ENE 4.6 mph - N/A   Clear
9:56 AM 19.9 °F - 10.0 °F 65% 30.53 in 10.0 mi Calm Calm - N/A   Clear
10:56 AM 25.0 °F - 10.9 °F 55% 30.50 in 10.0 mi Calm Calm - N/A   Clear
11:56 AM 28.9 °F - 12.9 °F 51% 30.47 in 10.0 mi Calm Calm - N/A   Clear
12:56 PM 32.0 °F 28.7 °F 14.0 °F 48% 30.44 in 10.0 mi East 3.5 mph - N/A   Clear
1:56 PM 35.1 °F - 14.0 °F 42% 30.43 in 10.0 mi Calm Calm - N/A   Clear
2:56 PM 36.0 °F 33.3 °F 15.1 °F 43% 30.42 in 10.0 mi ENE 3.5 mph - N/A   Clear
3:56 PM 35.1 °F 31.0 °F 15.1 °F 44% 30.42 in 10.0 mi NNE 4.6 mph - N/A   Clear
4:56 PM 30.0 °F 26.5 °F 15.1 °F 54% 30.42 in 10.0 mi NE 3.5 mph - N/A   Clear
5:56 PM 24.1 °F 16.0 °F 14.0 °F 65% 30.43 in 10.0 mi ENE 6.9 mph - N/A   Clear
6:56 PM 21.0 °F 14.6 °F 12.9 °F 71% 30.43 in 10.0 mi ESE 4.6 mph - N/A   Clear
7:56 PM 19.9 °F 11.1 °F 12.9 °F 74% 30.44 in 10.0 mi ESE 6.9 mph - N/A   Clear
8:56 PM 19.0 °F 12.3 °F 12.0 °F 74% 30.44 in 10.0 mi East 4.6 mph - N/A   Clear
9:56 PM 15.1 °F 6.4 °F 10.0 °F 80% 30.44 in 10.0 mi North 5.8 mph - N/A   Clear
10:56 PM 10.0 °F -0.9 °F 6.1 °F 84% 30.44 in 10.0 mi NE 6.9 mph - N/A   Clear
11:56 PM 12.0 °F 0.5 °F 7.0 °F 80% 30.43 in 10.0 mi NE 8.1 mph - N/A   Clear